Find Starlink 32386

NORAD ID: 61213 Int'l Des: 2024-171 Owner: SPXS Country: US Constellation: starlink operational
LEOCIRCULAR

实时位置

正在加载3D地球...

关于 Starlink 32386

正在加载描述...

即将过境

Passes for default location (London). Set your location on the main map for personalized predictions.

高度历史

Loading altitude history...

两行轨道根数

1 61213U 24171P 26126.10313659 .00000029 00000-0 13101-4 0 9994
2 61213 53.1618 55.4143 0001346 84.4660 275.6494 15.30182938 91167
Epoch: May 6, 2026 • Age: 7 hours

当前状态

高度 494.1 km
速度 7.62 km/s
星下点 -51.73°S, 30.71°W
发射日期 Sep 20, 2024
运行时间 1.6 years
类型 internet

技术详情

分类 Payload
质量 730.00 kg
干质量 700.00 kg
总质量 730.00 kg
长度 0.30 m
直径 4.10 m
跨度 29.00 m
形状 Box + pan
制造商 SPXS
平台类型 Starlink V2M
阶段状态 In Orbit
所有者/国家 SPXS/US

Most Searched